Regional Weather Roundup
Issued by NWS Sterling, VA

Home | Current Version | Previous Version | Graphics & Text | Print | Product List | Glossary On
Versions: 1 2 3 4 5 6 7 8 9 10 11 12 13 14 15 16 17 18 19 20 21 22 23 24 25 26 27 28 29 30 31 32 33 34 35 36 37 38 39 40 41 42 43 44 45 46 47 48 49 50
000
ASUS41 KLWX 282010
RWRLWX

REGIONAL WEATHER ROUNDUP
NATIONAL WEATHER SERVICE BALTIMORE MD/WASHINGTON DC
300 PM EST SAT FEB 28 2015

Note: "FAIR" indicates few or no clouds below 12,000 feet
with no significant weather and/or obstructions to visibility.
 TC=TEMPERATURE CELSIUS

 * =Non NWS site. Station does not report precipitation (e.g. rain,
    snow, etc.), thunder, or fog.

DCZ001-MDZ009-015-VAZ040>042-051-053>054-282100-
WASHINGTON METRO

CITY           SKY/WX    TMP DP  RH WIND       PRES   REMARKS
WASHINGTON NAT PTSUNNY   31   2  29 SE3       30.78F
DULLES         PTSUNNY   28  -4  25 CALM      30.76F
ANDREWS AFB    MOSUNNY   29   1  30 VRB1      30.76F
FT BELVOIR     MOSUNNY   30   3  31 SE8       30.77F WCI  22
QUANTICO       MOSUNNY   28   2  32 E3        30.79F
COLLEGE PARK*  MOSUNNY   30   1  29 CALM      30.77F
LEESBURG*      MOSUNNY   30   3  31 CALM      30.76F
MANASSAS*      SUNNY     28   1  31 CALM      30.77F
GAITHERSBURG*  FAIR      27  -6  24 CALM      30.78F

$$

MDZ006>007-011-014-282100-
BALTIMORE METRO

CITY           SKY/WX    TMP DP  RH WIND       PRES   REMARKS
BWI AIRPORT    PTSUNNY   29  -2  26 CALM      30.76F
MD SCIENCE CTR   N/A     30  -1  26 MISG      30.78F
MARTIN STATE   MOSUNNY   27   9  46 SE7       30.80F
ANNAPOLIS      SUNNY     25   6  44 SE8       30.79F WCI  16
FORT MEADE*    SUNNY     30   0  27 NE3       30.79F

$$

MDZ012-015-019>023-282100-
MARYLAND EASTERN SHORE

CITY           SKY/WX    TMP DP  RH WIND       PRES   REMARKS
OCEAN CITY     MOSUNNY   27  10  49 E9        30.79F WCI  18
SALISBURY      MOSUNNY   32   7  35 VRB5      30.78F
BAY BRIDGE AP*   N/A     28   0  29 NE3       30.80S
CAMBRIDGE*     SUNNY     32  10  40 CALM      30.79F
EASTON*        MOSUNNY   28   7  40 CALM      30.82F

$$

MDZ017>025-282100-
SOUTHERN MARYLAND

CITY           SKY/WX    TMP DP  RH WIND       PRES   REMARKS
PATUXENT RIVER CLOUDY    26   7  44 NE6       30.79F
ST INIGOES     SUNNY     27   6  41 NE7       30.78F
LEONARDTOWN*   SUNNY     28   9  43 N3        30.79F

$$

MDZ003>005-282100-
NORTH CENTRAL MARYLAND

CITY           SKY/WX    TMP DP  RH WIND       PRES   REMARKS
FREDERICK*     SUNNY     30 -18  11 CALM      30.79F
HAGERSTOWN APT SUNNY     27  -3  27 CALM      30.72F
WESTMINSTER*   FAIR      25  -6  26 CALM      30.72F

$$

MDZ501>502-282100-
WESTERN MARYLAND

CITY           SKY/WX    TMP DP  RH WIND       PRES   REMARKS
OAKLAND*       SUNNY     27  -9  20 SE7       30.50F
CUMBERLAND*    SUNNY     32   3  29 S3        30.72F

$$

VAZ025>031-282100-
SHENANDOAH VALLEY

CITY           SKY/WX    TMP DP  RH WIND       PRES   REMARKS
WINCHESTER*    MOSUNNY   32  -4  21 CALM      30.71F
FRONT ROYAL*   FAIR      28   7  40 E7        30.70F
LURAY*         FAIR      32  12  43 CALM      30.68F
NEW MARKET*    FAIR      28  10  47 W3        30.67F
STAUNTON*      MOSUNNY   29  10  44 S7        30.68F
WAYNESBORO*    FAIR      27   8  44 CALM      30.65S

$$

WVZ021-048>050-054>055-282100-
EASTERN WEST VIRGINIA PANHANDLE

CITY           SKY/WX    TMP DP  RH WIND       PRES   REMARKS
MARTINSBURG    SUNNY     30   2  30 VRB5      30.72F
PETERSBURG*    NOT AVBL

$$

VAZ036>039-050-282100-
CENTRAL FOOTHILLS

CITY           SKY/WX    TMP DP  RH WIND       PRES   REMARKS
CHARLOTTESVILL PTSUNNY   30   5  34 CALM      30.71F
CULPEPER*      PTSUNNY   30   1  29 S3        30.76F
ORANGE*        PTSUNNY   30   9  40 CALM      30.76F
GORDONSVILLE*  FAIR      29   5  36 CALM      30.73F
WARRENTON*     FAIR      31   9  39 E3        30.74F

$$

VAZ055>057-282100-
NORTH AND CENTRAL PIEDMONT

CITY           SKY/WX    TMP DP  RH WIND       PRES   REMARKS
FREDERICKSBRG* MOSUNNY   33   6  32 SE3       30.76F
STAFFORD*      PTSUNNY   30   0  27 CALM      30.80F

$$

NCZ024-NYZ072-PAZ021-071-VAZ022-071-282100-
OTHER REGIONAL OBSERVATIONS

CITY           SKY/WX    TMP DP  RH WIND       PRES   REMARKS
NEW YORK CITY  SUNNY     28   0  29 NW5       30.77F
PHILADELPHIA   MOSUNNY   30  -4  23 NW6       30.78F
PITTSBURGH     PTSUNNY   25  -1  32 NE6       30.64F
ROANOKE        MOSUNNY   31  11  43 VRB5      30.68F
RICHMOND       MOSUNNY   35   7  31 N3        30.75F
RALEIGH        PTSUNNY   35  13  40 NE8       30.70F WCI  29

$$

ANZ530>537-282100-
MARINE OBSERVATIONS

STATION/POSITION TIME  TEMP    WIND        PRES
                       AIR SEA DIR/SP/G
                 (UTC) (F)     (DEG/KT/KT) (MB)
THOMAS PT LIGHT  2000   24 32     CALM     1043.6F
BALT KEY BRIDGE  1900   25     110/  3/  3 1042.8F
COVE POINT       1900   22      40/  3/  5 1043.2F
LEWISETTA        1900   24 33     CALM     1042.9F
SOLOMONS ISLAND  1900      33                N/A

$$



USA.gov is the U.S. government's official web portal to all federal, state and local government web resources and services.